Regional Weather Roundup
Issued by NWS

Home | Current Version | Previous Version | Graphics & Text | Print | Product List | Glossary Off
Versions: 1 2 3 4 5 6 7 8 9 10 11 12 13 14 15 16 17 18 19 20 21 22 23 24 25 26 27 28 29 30 31 32 33 34 35 36 37 38 39 40 41 42 43 44 45 46 47 48 49 50

951
ASUS43 KTOP 060308
RWRKS

WEATHER ROUNDUP FOR KANSAS
NATIONAL WEATHER SERVICE GOODLAND KS
900 PM CST FRI FEB 05 2016

NOTE:  "FAIR" INDICATES FEW OR NO CLOUDS BELOW 12,000 FEET WITH NO
SIGNIFICANT WEATHER AND/OR OBSTRUCTIONS TO VISIBILITY.

KSZ001>006-013>018-027>032-041>047-060400-
NORTHWEST KANSAS

CITY           SKY/WX    TMP DP  RH WIND       PRES   REMARKS
GOODLAND       CLEAR     23  15  71 NW13      30.28S WCI  11
HAYS           MOCLDY    30  18  59 NW7       30.28S
HILL CITY      CLEAR     29  22  75 NW10      30.28S WCI  20
RUSSELL        CLOUDY    33  28  81 NW12      30.26S WCI  24
$$

KSZ061>065-074>080-084>089-060400-
SOUTHWEST KANSAS

CITY           SKY/WX    TMP DP  RH WIND       PRES   REMARKS
DODGE CITY     CLOUDY    28  21  75 NW9       30.29S
ELKHART          N/A     29  15  56 W8          N/A
GARDEN CITY    CLEAR     29  22  75 NW10      30.29S WCI  20
GREAT BEND     PTCLDY    30  21  69 NW7       30.28S
LIBERAL        CLEAR     23  12  63 NW8       30.31S
PRATT          CLEAR     28  21  74 W3        30.29S
$$

KSZ066>073-081>083-090>101-060400-
SOUTHEAST KANSAS

CITY           SKY/WX    TMP DP  RH WIND       PRES   REMARKS
CHANUTE        PTCLDY    40  24  53 SE7       30.26S
COFFEYVILLE    CLOUDY    43  25  49 S6        30.27F
HUTCHINSON     CLOUDY    36  22  56 W9        30.28R
MEDICINE LODGE   N/A     30  22  72 N5        30.29R
NEWTON         CLOUDY    37  19  48 NW13      30.28R WCI  29
PARSONS        CLOUDY    43  24  47 S3        30.28S
WICHITA INTL   PTCLDY    37  24  59 NW8       30.27R
WICHITA JABRA  MOCLDY    39  25  57 NW9       30.26R
WICHITA MCCONL MOCLDY    40  25  53 W6        30.26R
WINFIELD       CLOUDY    42  30  62 W6        30.27S
$$

KSZ007>012-019>026-033>040-048>060-102>105-060400-
NORTHEAST KANSAS

CITY           SKY/WX    TMP DP  RH WIND       PRES   REMARKS
CONCORDIA      CLEAR     31  25  78 W6        30.26S
EMPORIA        CLOUDY    35  23  61 W5        30.25S
LAWRENCE       CLOUDY    30  24  78 CALM      30.28S
MANHATTAN      MOCLDY    35  23  61 W6        30.28R
MARYSVILLE     CLEAR     30  27  86 CALM      30.26S
OLATHE IND     CLOUDY    33  25  72 SE3       30.28S
OLATHE EXE     CLOUDY    36  24  62 SE3       30.27S
SALINA         CLEAR     33  24  69 W8        30.28S
TOPEKA BILLARD CLOUDY    33  25  72 CALM      30.27S
TOPEKA FORBES  CLOUDY    34  23  64 CALM      30.25F
$$




USA.gov is the U.S. government's official web portal to all federal, state and local government web resources and services.